EN

Hourly Weather Chengalpattu

Today, 18 May, Tuesday

Time Temperature Precipitation Wind Pressure Humidity
00:00 +32°C° 0.6 mm 5 mps 752 mmHg 72%
01:00 +32°C° 0.6 mm 5 mps 751 mmHg 72%
02:00 +32°C° 0.6 mm 4 mps 751 mmHg 71%
03:00 +32°C° 0.1 mm 4 mps 751 mmHg 72%
04:00 +32°C° 0.1 mm 4 mps 751 mmHg 72%
05:00 +32°C° 0.1 mm 4 mps 751 mmHg 73%
06:00 +33°C° 0 mm 5 mps 752 mmHg 67%
07:00 +34°C° 0 mm 5 mps 752 mmHg 60%
08:00 +36°C° 0 mm 6 mps 753 mmHg 54%
09:00 +40°C° 0 mm 7 mps 750 mmHg 42%
10:00 +40°C° 0 mm 6 mps 751 mmHg 41%
11:00 +41°C° 0 mm 6 mps 751 mmHg 41%
12:00 +40°C° 0 mm 6 mps 751 mmHg 42%
13:00 +40°C° 0 mm 7 mps 750 mmHg 43%
14:00 +40°C° 0 mm 7 mps 749 mmHg 44%
15:00 +39°C° 0 mm 7 mps 749 mmHg 48%
16:00 +38°C° 0 mm 7 mps 749 mmHg 52%
17:00 +36°C° 0 mm 7 mps 750 mmHg 57%
18:00 +35°C° 0 mm 7 mps 750 mmHg 61%
19:00 +34°C° 0 mm 6 mps 751 mmHg 66%
20:00 +33°C° 0 mm 6 mps 751 mmHg 71%
21:00 +33°C° 0 mm 6 mps 751 mmHg 72%
22:00 +33°C° 0 mm 6 mps 751 mmHg 73%
23:00 +33°C° 0 mm 6 mps 752 mmHg 74%

Tomorrow, 19 May, Wednesday

Time Temperature Precipitation Wind Pressure Humidity
00:00 +33°C° 0.1 mm 6 mps 751 mmHg 73%
01:00 +32°C° 0.1 mm 5 mps 751 mmHg 73%
02:00 +32°C° 0.1 mm 4 mps 750 mmHg 72%
03:00 +32°C° 0.2 mm 4 mps 750 mmHg 73%
04:00 +32°C° 0.2 mm 4 mps 751 mmHg 75%
05:00 +30°C° 0.2 mm 4 mps 751 mmHg 76%
06:00 +33°C° 0.1 mm 4 mps 751 mmHg 69%
07:00 +34°C° 0.1 mm 4 mps 752 mmHg 62%
08:00 +36°C° 0.1 mm 4 mps 752 mmHg 55%
09:00 +37°C° 0 mm 4 mps 752 mmHg 50%
10:00 +38°C° 0 mm 4 mps 751 mmHg 45%
11:00 +41°C° 0 mm 4 mps 751 mmHg 40%
12:00 +40°C° 0 mm 5 mps 750 mmHg 40%
13:00 +40°C° 0 mm 5 mps 749 mmHg 41%
14:00 +40°C° 0 mm 6 mps 748 mmHg 41%
15:00 +39°C° 0 mm 7 mps 748 mmHg 46%
16:00 +38°C° 0 mm 7 mps 748 mmHg 51%
17:00 +37°C° 0 mm 8 mps 749 mmHg 56%
18:00 +35°C° 0 mm 8 mps 749 mmHg 61%
19:00 +34°C° 0 mm 7 mps 750 mmHg 65%
20:00 +34°C° 0 mm 7 mps 751 mmHg 69%
21:00 +34°C° 0.1 mm 7 mps 751 mmHg 69%
22:00 +33°C° 0.1 mm 6 mps 751 mmHg 68%
23:00 +33°C° 0.1 mm 6 mps 751 mmHg 67%

Day after tomorrow, 20 May, Thursday

Time Temperature Precipitation Wind Pressure Humidity
00:00 +33°C° 0.3 mm 5 mps 751 mmHg 67%
01:00 +33°C° 0.3 mm 5 mps 750 mmHg 67%
02:00 +33°C° 0.3 mm 4 mps 750 mmHg 68%
03:00 +31°C° 1.1 mm 3 mps 750 mmHg 69%
04:00 +31°C° 1.1 mm 3 mps 751 mmHg 70%
05:00 +31°C° 1.1 mm 3 mps 751 mmHg 71%
06:00 +31°C° 0 mm 2 mps 752 mmHg 68%
07:00 +31°C° 0 mm 1 mps 752 mmHg 65%
08:00 +32°C° 0 mm 1 mps 753 mmHg 63%
09:00 +34°C° 0 mm 1 mps 752 mmHg 56%
10:00 +36°C° 0 mm 2 mps 752 mmHg 49%
11:00 +38°C° 0 mm 2 mps 752 mmHg 42%
12:00 +39°C° 0 mm 3 mps 751 mmHg 39%
13:00 +40°C° 0 mm 3 mps 750 mmHg 37%
14:00 +42°C° 0 mm 3 mps 749 mmHg 34%
15:00 +40°C° 0.2 mm 4 mps 749 mmHg 41%
16:00 +37°C° 0.2 mm 4 mps 750 mmHg 48%
17:00 +35°C° 0.2 mm 5 mps 750 mmHg 55%
18:00 +35°C° 0.1 mm 5 mps 750 mmHg 58%
19:00 +34°C° 0.1 mm 4 mps 751 mmHg 62%
20:00 +34°C° 0.1 mm 4 mps 751 mmHg 66%
21:00 +34°C° 0.3 mm 4 mps 751 mmHg 66%
22:00 +34°C° 0.3 mm 5 mps 751 mmHg 65%
23:00 +34°C° 0.3 mm 5 mps 751 mmHg 65%

21 May, Friday

Time Temperature Precipitation Wind Pressure Humidity
00:00 +33°C° 0.3 mm 5 mps 751 mmHg 67%
01:00 +32°C° 0.3 mm 6 mps 751 mmHg 69%
02:00 +30°C° 0.3 mm 6 mps 750 mmHg 70%
03:00 +30°C° 0.7 mm 6 mps 751 mmHg 72%
04:00 +29°C° 0.7 mm 5 mps 751 mmHg 74%
05:00 +29°C° 0.7 mm 5 mps 751 mmHg 75%
06:00 +29°C° 1 mm 5 mps 752 mmHg 72%
07:00 +30°C° 1 mm 5 mps 752 mmHg 68%
08:00 +32°C° 1 mm 5 mps 753 mmHg 64%
09:00 +33°C° 0.2 mm 5 mps 752 mmHg 58%
10:00 +35°C° 0.2 mm 5 mps 752 mmHg 53%
11:00 +36°C° 0.2 mm 4 mps 752 mmHg 47%
12:00 +37°C° 0 mm 4 mps 751 mmHg 45%
13:00 +37°C° 0 mm 5 mps 750 mmHg 43%
14:00 +39°C° 0 mm 5 mps 750 mmHg 42%
15:00 +37°C° 0.2 mm 5 mps 750 mmHg 44%
16:00 +36°C° 0.2 mm 5 mps 750 mmHg 47%
17:00 +35°C° 0.2 mm 5 mps 750 mmHg 50%
18:00 +35°C° 0.4 mm 5 mps 750 mmHg 53%
19:00 +34°C° 0.4 mm 5 mps 751 mmHg 56%
20:00 +33°C° 0.4 mm 5 mps 751 mmHg 59%
21:00 +33°C° 0.1 mm 5 mps 751 mmHg 60%
22:00 +33°C° 0.1 mm 4 mps 751 mmHg 60%
23:00 +31°C° 0.1 mm 3 mps 751 mmHg 61%

22 May, Saturday

Time Temperature Precipitation Wind Pressure Humidity
00:00 +31°C° 0 mm 3 mps 751 mmHg 62%
01:00 +32°C° 0 mm 4 mps 750 mmHg 63%
02:00 +30°C° 0 mm 4 mps 750 mmHg 65%
03:00 +30°C° 0.1 mm 4 mps 750 mmHg 66%
04:00 +30°C° 0.1 mm 4 mps 750 mmHg 67%
05:00 +30°C° 0.1 mm 4 mps 750 mmHg 68%
06:00 +32°C° 0 mm 4 mps 751 mmHg 64%
07:00 +33°C° 0 mm 4 mps 751 mmHg 60%
08:00 +34°C° 0 mm 4 mps 752 mmHg 56%
09:00 +36°C° 0 mm 4 mps 751 mmHg 50%
10:00 +38°C° 0 mm 4 mps 751 mmHg 44%
11:00 +40°C° 0 mm 5 mps 751 mmHg 38%
12:00 +41°C° 0 mm 5 mps 750 mmHg 35%
13:00 +42°C° 0 mm 4 mps 749 mmHg 33%
14:00 +43°C° 0 mm 4 mps 748 mmHg 31%
15:00 +40°C° 0.7 mm 6 mps 748 mmHg 40%
16:00 +38°C° 0.7 mm 7 mps 749 mmHg 50%
17:00 +34°C° 0.7 mm 8 mps 749 mmHg 60%
18:00 +34°C° 1.9 mm 7 mps 750 mmHg 56%
19:00 +32°C° 1.9 mm 7 mps 750 mmHg 63%
20:00 +29°C° 1.9 mm 8 mps 751 mmHg 70%
21:00 +29°C° 0.4 mm 7 mps 751 mmHg 69%
22:00 +29°C° 0.4 mm 6 mps 751 mmHg 69%
23:00 +29°C° 0.4 mm 5 mps 751 mmHg 68%

23 May, Sunday

Time Temperature Precipitation Wind Pressure Humidity
00:00 +29°C° 0.2 mm 5 mps 751 mmHg 68%
01:00 +29°C° 0.2 mm 5 mps 751 mmHg 68%
02:00 +29°C° 0.2 mm 5 mps 751 mmHg 68%
03:00 +29°C° 0 mm 5 mps 751 mmHg 67%
04:00 +29°C° 0 mm 5 mps 751 mmHg 67%
05:00 +29°C° 0 mm 5 mps 751 mmHg 66%
06:00 +30°C° 0 mm 5 mps 751 mmHg 61%
07:00 +33°C° 0 mm 4 mps 752 mmHg 56%
08:00 +34°C° 0 mm 4 mps 752 mmHg 51%
09:00 +35°C° 0 mm 4 mps 752 mmHg 46%
10:00 +37°C° 0 mm 4 mps 752 mmHg 41%
11:00 +38°C° 0 mm 3 mps 751 mmHg 36%
12:00 +39°C° 0 mm 3 mps 751 mmHg 35%
13:00 +40°C° 0 mm 3 mps 750 mmHg 33%
14:00 +40°C° 0 mm 3 mps 749 mmHg 32%
15:00 +41°C° 0 mm 4 mps 749 mmHg 35%
16:00 +40°C° 0 mm 4 mps 749 mmHg 38%
17:00 +38°C° 0 mm 4 mps 749 mmHg 41%
18:00 +37°C° 0 mm 5 mps 750 mmHg 48%
19:00 +36°C° 0 mm 5 mps 751 mmHg 55%
20:00 +35°C° 0 mm 5 mps 751 mmHg 63%
21:00 +35°C° 0 mm 6 mps 751 mmHg 61%
22:00 +34°C° 0 mm 6 mps 751 mmHg 59%
23:00 +34°C° 0 mm 7 mps 751 mmHg 57%
Show more